Temperature
21 19 19 20 24 27 31 32 32 32 32 31 31 31 31 31 30 29 23 22 22 22 22 22 22 21 21 21 21 20 20 20 20 20 20 20 20 20 20 20 20 19 19 19 19 19 19 19 19
20 19 20 23 27 31 32 32 32 32 32 31 30 30 31 30 27 25 22 22 22 21 22 22 22 21 21 21 21 21 20 20 20 20 20 20 20 20 20 20 20 20 20 19 19 19 19 19 19
19 20 23 27 30 31 32 32 32 32 31 31 31 30 30 28 25 24 22 22 21 21 21 22 22 22 21 21 21 21 21 21 21 21 20 20 20 20 20 20 20 20 20 20 19 19 19 19 19
20 22 24 29 31 32 32 32 32 32 31 30 31 31 28 25 24 23 22 22 21 21 21 22 22 22 21 21 21 21 21 21 21 21 21 20 20 20 20 20 20 20 19 20 19 19 19 19 19
21 26 29 31 32 32 33 32 32 33 32 31 31 31 28 24 23 23 22 22 21 21 21 21 22 21 21 21 21 21 21 21 21 21 20 20 20 20 20 20 19 19 19 19 19 19 19 19 19
25 29 31 32 32 32 33 32 32 33 32 31 31 31 28 23 23 23 22 22 22 21 21 20 21 21 21 21 21 21 21 21 21 21 20 20 20 20 20 20 19 19 19 19 19 19 19 19 19
27 30 31 32 32 32 33 32 32 32 32 31 31 31 27 24 23 22 22 22 22 22 21 20 20 21 20 20 20 21 21 21 20 20 20 20 20 20 20 19 19 19 19 19 19 19 19 19 19
26 30 31 32 32 32 32 32 32 32 31 30 30 31 29 24 23 22 21 21 21 21 20 19 19 19 19 20 20 20 20 20 20 20 20 20 20 19 19 19 19 19 19 19 19 19 18 18 18
26 29 31 32 32 32 32 32 32 31 30 29 28 28 27 24 23 22 21 21 20 20 20 19 19 19 19 19 19 19 20 20 20 20 20 20 19 18 18 19 18 19 19 19 18 18 18 18 18
27 30 31 32 32 32 32 32 32 31 31 29 28 25 24 23 22 22 21 21 20 20 19 19 19 19 19 18 18 18 18 19 19 18 18 18 18 18 18 18 18 19 19 19 18 18 18 18 17
29 30 31 31 31 31 32 31 31 31 31 28 27 25 23 23 22 22 22 21 20 20 19 19 19 18 19 18 18 18 18 18 18 18 18 18 18 18 18 18 18 18 18 18 18 18 17 17 17
29 30 30 30 30 30 31 30 30 29 27 25 25 24 23 23 23 22 21 21 20 20 19 19 19 19 18 19 18 18 18 18 18 18 18 18 18 18 18 18 18 18 18 17 17 18 17 17 17
29 30 30 29 30 30 29 30 29 27 25 24 24 23 23 23 23 22 21 20 20 19 19 19 19 19 19 19 18 18 18 18 18 18 18 18 18 18 18 18 18 18 18 18 17 17 17 17 17
29 29 29 29 29 29 29 28 28 25 24 23 23 22 22 22 21 21 20 20 19 19 19 19 19 19 19 19 19 18 18 18 18 18 17 18 18 18 18 18 17 18 17 17 17 17 17 17 17
28 29 30 30 29 29 29 28 26 24 24 23 22 21 20 20 19 19 19 19 19 19 19 19 18 18 18 18 18 18 17 17 17 17 17 17 17 17 17 17 17 17 17 17 17 17 17 17 17
29 29 30 30 29 29 29 28 25 23 23 22 21 20 19 18 18 18 18 18 18 18 18 18 17 17 18 18 18 17 17 17 17 17 17 17 17 17 17 17 17 17 17 17 17 17 17 17 17
29 30 30 29 29 29 29 27 24 23 23 21 20 19 18 17 17 17 17 17 17 17 17 17 17 17 17 17 17 17 17 17 16 16 16 16 16 17 17 17 17 17 17 17 17 17 17 17 17
29 30 29 29 28 28 28 25 23 22 22 21 20 19 18 17 16 16 16 17 17 17 17 17 17 17 17 17 17 16 16 16 16 16 16 16 16 16 16 16 16 16 16 16 16 16 16 17 17
29 29 29 28 27 27 26 24 23 22 22 21 20 19 18 17 16 16 16 17 17 17 17 17 17 17 17 16 16 16 16 16 15 16 15 16 16 16 16 16 16 16 16 16 16 16 16 16 16
29 29 29 27 27 27 26 24 23 22 21 20 20 19 18 18 17 16 16 16 17 16 16 16 16 16 16 16 16 16 16 15 15 15 16 16 16 16 16 16 16 16 16 16 16 16 16 16 16
29 29 29 28 27 27 26 25 24 22 21 20 19 19 18 18 17 17 16 16 16 16 16 16 16 16 16 16 16 15 15 15 15 15 15 15 15 15 15 15 15 15 15 15 16 16 16 16 16
29 29 29 28 27 28 27 27 25 24 23 22 20 19 18 18 17 17 17 16 16 16 16 16 16 16 16 16 15 15 15 15 15 15 15 15 15 15 15 15 15 15 15 15 15 15 15 15 16
28 28 29 28 28 28 27 27 26 25 24 23 21 20 19 18 17 17 16 16 16 16 16 16 16 16 16 16 15 15 15 15 14 14 14 14 14 14 14 14 14 15 15 15 15 15 15 15 16
28 28 28 28 28 27 27 26 25 25 24 23 22 20 19 18 17 17 17 16 16 16 16 15 15 15 15 15 15 15 14 14 14 14 14 14 14 14 14 14 14 14 14 14 15 15 15 15 15
28 28 27 26 26 26 26 26 24 23 23 22 22 20 19 18 18 17 17 17 16 16 15 15 15 15 14 14 14 14 14 14 13 13 13 13 13 13 13 13 13 13 13 13 14 14 14 14 14
28 27 26 25 26 26 26 25 23 22 21 21 20 20 19 19 18 18 17 17 16 16 15 15 14 14 14 13 13 13 13 13 13 13 13 13 13 13 12 12 12 12 12 12 13 13 13 14 14
27 27 27 26 26 26 26 24 22 22 22 21 21 20 20 19 18 18 17 17 16 16 15 15 14 13 13 13 13 13 12 12 12 12 12 12 12 12 12 12 11 11 11 12 12 12 12 12 13
27 27 27 26 25 25 25 24 23 22 22 22 22 21 20 19 18 18 17 17 16 15 15 14 13 13 13 12 12 13 12 12 12 12 11 11 11 11 11 11 11 11 11 11 11 11 11 11 12
27 26 26 26 25 24 24 23 23 22 21 21 21 20 19 19 18 18 17 16 15 15 14 14 13 13 13 12 12 12 12 12 11 11 11 11 11 10 10 10 10 10 10 10 10 10 11 11 11
26 25 25 25 24 24 24 24 22 22 21 21 20 19 19 18 17 17 16 15 15 14 14 13 13 12 12 12 12 11 11 11 11 11 11 11 10 10 10 10 10 10 10 10 10 10 10 10 10
Wind_Speed
18 15 8 5 5 5 3 5 5 5 3 3 2 2 4 5 5 4 4 13 17 20 22 23 20 19 17 17 16 16 16 16 15 15 15 14 13 13 12 11 10 9 8 8 8 8 9 9 9
16 12 6 5 5 2 5 6 7 7 4 2 0 2 3 3 4 4 7 14 19 20 21 21 21 19 18 17 16 16 16 15 15 15 14 13 13 12 11 10 9 8 8 8 8 8 8 8 9
14 10 5 4 4 5 6 7 6 5 2 2 1 2 3 4 3 4 9 17 19 19 20 21 22 20 19 17 16 16 16 15 15 14 14 13 12 11 11 10 9 8 8 8 8 8 8 8 8
9 6 5 7 5 3 5 7 5 4 2 1 1 1 4 5 3 7 15 18 19 19 19 21 21 20 19 18 17 16 15 15 14 13 13 12 12 11 10 10 9 8 8 8 7 7 8 8 8
6 5 8 8 4 3 4 6 6 5 4 1 1 2 4 5 7 13 16 18 18 18 17 21 20 19 18 17 16 16 15 14 13 12 12 11 11 10 10 9 9 8 8 8 7 8 8 8 8
5 5 9 8 3 3 3 5 6 5 3 1 0 2 5 7 11 14 16 16 17 16 16 20 19 18 17 16 15 15 14 13 13 12 11 11 10 10 9 9 9 9 8 8 8 8 8 8 9
8 7 11 10 7 4 4 7 6 5 3 2 1 1 6 9 12 14 15 14 15 15 14 16 18 17 16 15 15 14 13 13 12 12 11 11 10 10 10 10 10 10 10 10 10 10 10 10 10
7 6 12 10 8 5 5 7 6 6 3 2 1 1 5 12 14 15 14 13 13 13 13 14 15 15 15 15 15 13 13 12 12 11 11 11 11 11 11 12 12 12 11 11 12 12 12 12 12
5 8 13 11 8 6 6 8 6 4 1 2 2 4 6 16 17 16 14 13 12 13 12 12 13 13 13 13 14 14 13 13 12 13 13 12 13 14 13 16 13 13 13 13 13 13 14 14 15
7 12 13 8 8 10 9 8 7 4 2 1 3 5 10 16 16 16 16 15 15 14 13 11 11 11 11 9 10 11 12 12 13 12 12 13 12 11 11 8 11 13 15 15 16 16 15 16 14
9 12 11 9 9 10 10 8 6 7 4 5 4 2 9 13 14 14 14 14 14 13 13 12 10 10 10 8 8 8 8 9 11 13 12 12 11 10 11 10 11 14 16 15 15 16 15 14 12
11 12 12 12 10 10 10 7 5 5 7 7 4 3 9 11 12 12 12 12 12 13 13 12 11 9 8 8 7 7 7 7 8 11 13 11 8 9 9 8 9 9 10 10 11 10 12 12 13
13 13 11 10 10 9 8 5 2 5 8 6 4 6 7 7 7 8 9 10 10 11 11 10 10 10 9 8 7 8 8 8 9 10 11 12 9 9 9 8 8 10 10 9 9 10 10 10 11
9 10 11 10 8 6 5 1 1 6 6 6 7 7 6 6 6 7 6 7 8 8 8 8 9 8 8 8 7 7 8 8 10 9 11 12 11 9 8 9 9 9 10 10 9 10 10 10 9
9 11 9 5 5 5 6 3 4 6 4 6 8 8 9 8 7 5 4 4 4 5 5 5 6 7 7 7 7 6 7 8 8 8 10 10 11 10 9 9 9 9 10 10 9 10 9 9 10
8 10 7 3 1 4 10 3 7 5 5 7 8 9 10 9 9 7 6 5 4 3 2 2 2 3 4 5 5 5 6 6 6 7 8 8 10 9 8 8 9 9 9 8 8 8 8 8 9
7 6 3 4 3 2 4 4 7 5 6 7 8 9 9 10 10 8 7 6 5 4 2 2 2 2 2 3 4 4 4 5 6 7 7 8 9 9 7 7 7 8 7 8 8 7 7 7 7
1 2 2 2 4 3 4 7 6 6 6 7 7 8 8 9 8 7 6 6 5 4 4 2 1 1 2 3 3 4 4 5 4 5 6 8 8 9 8 7 8 8 7 7 7 6 6 6 6
4 4 1 4 3 2 5 7 6 5 6 6 6 7 7 7 7 6 6 5 5 5 4 3 2 2 2 3 3 3 3 4 4 5 6 6 6 6 6 7 7 8 8 7 7 7 7 7 6
5 5 2 4 4 2 5 6 6 5 6 6 6 6 6 6 6 6 6 5 5 5 4 3 2 3 3 2 3 3 4 4 3 3 4 4 4 5 5 6 6 6 6 7 7 7 6 7 6
6 5 3 2 4 5 5 6 7 6 6 6 5 5 5 5 5 5 5 5 5 4 4 4 4 3 3 4 3 3 3 3 3 3 3 3 4 4 3 4 5 5 6 6 6 6 9 8 7
5 2 4 4 6 4 6 4 8 7 6 6 5 5 5 4 4 4 4 4 4 3 3 3 3 4 4 4 4 5 5 4 3 3 2 3 3 3 3 3 4 5 5 5 6 7 8 9 8
3 2 4 6 8 6 5 6 7 6 6 6 5 4 4 3 3 2 2 2 2 2 2 2 3 4 4 5 5 5 5 4 3 3 3 3 3 3 3 3 3 4 5 6 7 6 8 9 9
1 3 5 7 9 7 0 5 4 4 4 5 5 4 3 1 1 0 1 2 3 3 4 4 5 5 5 6 6 6 6 6 6 5 5 4 3 3 3 3 3 4 5 5 6 7 8 9 9
4 7 7 5 5 1 2 3 5 6 4 3 2 1 1 1 2 2 4 5 6 6 7 7 7 8 7 8 8 8 8 8 8 8 6 6 5 4 3 3 3 4 4 6 6 7 8 8 9
4 7 7 7 7 4 2 1 6 5 4 2 1 1 2 3 4 5 6 7 8 9 9 10 10 10 10 10 10 10 10 10 9 9 9 8 7 7 5 6 6 5 5 6 5 6 8 7 8
4 4 5 7 7 7 0 5 6 4 2 0 2 3 4 5 6 7 8 10 11 11 11 11 11 12 12 12 12 12 12 12 12 12 11 11 9 9 8 8 8 8 7 7 6 6 7 7 8
4 3 4 5 6 6 2 1 3 3 3 4 4 5 6 7 8 9 10 11 12 12 12 12 13 13 13 13 13 13 13 14 14 14 14 13 13 12 11 11 11 10 10 9 8 8 7 8 8
2 2 4 4 5 7 6 2 5 4 5 6 6 6 7 9 11 11 12 12 13 13 14 14 14 15 15 15 15 15 16 16 16 15 16 15 14 14 14 13 13 13 12 12 10 11 9 9 9
5 5 4 5 4 4 7 2 6 3 4 5 7 8 9 11 13 14 14 14 14 15 15 16 16 17 17 17 17 17 17 17 17 17 17 16 16 16 16 16 16 16 15 14 13 13 12 12 11
Wind_Direction
159 166 180 200 237 230 32 35 4 357 359 359 331 279 314 321 327 3 98 151 152 150 148 155 159 162 162 159 156 154 154 155 156 157 158 158 158 158 158 158 156 152 147 141 137 132 128 125 123
163 165 190 226 263 312 57 30 14 8 13 1 317 274 307 4 31 81 130 148 152 150 151 158 158 163 164 161 159 158 158 159 159 160 161 161 162 162 163 162 160 160 156 151 146 143 139 136 133
163 184 226 243 273 344 16 21 8 9 7 323 337 339 351 21 69 115 136 151 152 151 154 154 160 165 165 164 163 162 162 163 164 164 165 166 167 168 169 167 167 167 163 161 158 155 151 148 146
169 205 231 251 282 356 349 351 348 342 0 330 289 89 90 55 81 124 142 154 153 155 157 154 163 166 167 167 167 167 167 167 168 168 170 173 175 177 179 177 177 176 174 173 172 169 165 162 160
219 242 248 253 283 356 347 348 336 333 348 355 291 78 97 85 103 131 148 156 158 159 157 156 165 167 169 171 171 171 172 172 173 174 177 179 182 185 188 188 187 186 187 186 185 182 179 177 176
226 245 262 277 310 344 359 354 327 332 348 13 305 112 101 119 132 143 151 159 161 160 160 153 165 169 172 174 175 176 176 178 180 182 184 188 192 196 199 200 199 199 201 201 201 199 196 194 194
260 263 273 284 293 301 358 341 332 336 333 3 351 108 120 139 141 146 150 162 161 163 161 158 168 173 176 178 180 181 182 185 187 190 193 197 203 207 210 211 212 212 212 213 213 212 210 207 207
266 270 264 266 279 295 353 337 333 327 1 43 344 350 132 151 149 148 152 160 162 167 168 167 172 175 181 183 185 189 190 193 196 200 204 208 213 217 219 222 215 221 223 222 222 222 221 219 216
248 252 262 270 282 300 335 327 335 336 46 92 43 25 98 141 150 150 153 161 167 173 175 178 174 179 188 191 181 191 197 201 205 209 210 216 225 223 215 224 212 220 230 232 231 230 230 228 223
229 253 263 288 294 302 314 316 329 296 252 109 77 85 123 147 157 161 164 169 173 177 181 185 181 184 191 197 185 204 209 205 215 219 214 219 228 236 238 211 212 230 236 239 237 237 236 235 232
233 255 275 278 285 296 299 310 322 301 304 354 334 151 153 161 166 171 174 174 175 179 184 186 187 193 197 199 203 211 218 215 219 224 224 228 234 233 236 231 217 226 232 236 231 229 233 233 235
244 255 267 274 288 290 296 299 310 349 357 353 349 143 160 171 174 175 173 174 174 181 187 187 188 192 205 214 215 224 228 227 231 225 228 227 229 236 238 238 239 232 232 232 238 236 235 237 238
243 257 262 267 273 279 279 279 303 22 12 23 79 122 145 157 163 167 166 170 173 180 186 190 193 196 201 213 229 235 242 245 242 243 234 236 237 237 238 240 244 246 245 238 237 242 243 241 240
261 266 267 267 265 254 234 200 31 18 21 58 81 96 109 118 133 143 153 162 172 180 186 193 203 206 212 218 224 242 250 252 257 252 249 243 243 241 242 243 244 247 248 249 248 246 246 245 244
264 262 246 237 239 214 199 142 38 21 49 74 77 81 87 89 96 104 119 142 158 167 171 193 211 219 227 237 240 251 260 261 262 264 259 254 254 250 247 248 247 246 246 247 249 253 252 247 242
242 238 221 151 218 202 231 198 50 39 75 80 80 83 84 78 75 70 71 79 88 116 137 185 234 245 248 253 257 258 265 272 270 271 266 260 261 258 258 256 251 247 245 242 243 247 247 248 249
217 228 208 131 62 190 225 95 60 56 85 86 83 83 84 79 68 62 62 69 67 63 56 43 5 329 297 274 261 265 270 266 269 269 268 264 257 256 254 256 256 250 244 243 245 238 247 247 249
254 250 208 113 71 117 116 102 83 70 81 85 87 87 84 76 63 58 58 61 62 58 51 36 31 359 319 288 263 260 260 263 272 279 279 274 262 256 252 250 250 251 247 242 239 242 241 253 253
294 277 248 94 108 100 110 107 94 90 90 90 88 89 87 79 72 67 65 64 65 62 59 51 28 13 340 311 297 291 282 276 276 275 280 275 271 268 257 254 243 245 245 244 237 235 232 239 240
249 253 205 133 145 163 135 119 106 92 85 81 89 91 93 92 83 73 70 70 67 61 48 39 25 12 339 332 307 293 297 292 296 309 314 312 306 290 265 258 253 241 238 233 234 233 241 234 220
248 264 277 184 169 185 183 165 143 121 111 105 100 96 92 88 83 77 68 63 62 58 40 25 10 356 339 326 314 309 289 282 299 314 315 324 319 315 305 279 270 257 248 241 237 231 232 235 224
270 320 282 221 226 227 235 259 141 141 133 119 112 102 94 87 84 78 74 64 57 49 37 21 360 344 335 322 329 327 322 321 326 312 311 304 302 308 305 295 286 276 268 261 248 231 232 236 233
333 333 265 252 260 266 226 274 129 149 138 123 118 110 100 93 88 81 60 40 22 3 352 341 330 323 323 321 317 309 316 320 318 310 298 293 298 300 308 301 289 280 274 266 262 253 238 234 239
234 236 230 240 255 252 279 285 124 113 101 116 121 121 117 120 115 270 296 303 305 304 305 306 305 302 301 300 301 298 302 302 304 299 298 292 292 293 308 308 303 290 281 271 261 256 244 246 246
260 280 270 256 249 264 109 275 77 84 86 88 108 118 147 238 281 291 295 303 304 301 299 298 297 297 297 294 290 287 285 283 278 283 287 285 285 278 272 279 275 285 287 277 268 258 259 250 245
316 300 305 307 313 320 186 111 90 82 91 102 116 297 288 286 291 298 301 303 303 303 300 296 295 293 293 291 288 283 277 277 281 278 286 284 281 281 277 265 261 261 264 269 267 266 258 254 251
298 317 333 290 287 288 222 117 118 116 109 210 283 287 293 298 300 302 305 309 310 310 307 303 300 296 293 290 288 280 276 276 281 281 272 274 273 272 264 258 253 251 250 252 255 261 263 259 253
359 328 285 302 316 305 301 131 101 82 10 346 325 313 307 304 306 309 311 314 315 313 310 307 301 298 296 292 288 286 284 278 273 272 275 275 274 271 267 261 257 252 248 243 242 249 243 249 252
1 357 332 310 318 311 317 42 67 27 358 336 330 325 318 315 316 317 318 317 315 314 313 311 307 303 298 294 291 288 285 282 278 271 269 268 267 267 263 258 255 253 251 246 241 246 245 241 246
42 17 349 326 335 312 305 43 91 26 343 326 323 321 320 319 317 318 319 319 317 315 314 311 309 305 302 298 294 290 287 284 280 276 274 273 269 264 262 260 257 253 249 245 242 243 244 243 242
Height
1525 1527 1531 1533 1529 1517 1504 1497 1494 1493 1492 1494 1495 1495 1494 1495 1498 1505 1507 1506 1508 1511 1513 1516 1519 1522 1525 1528 1530 1533 1535 1537 1539 1541 1542 1544 1545 1546 1547 1548 1549 1551 1552 1553 1554 1555 1555 1556 1557
1527 1530 1533 1531 1519 1505 1501 1495 1495 1494 1495 1496 1496 1497 1496 1497 1503 1505 1505 1506 1509 1512 1514 1517 1520 1523 1526 1528 1531 1533 1536 1538 1539 1541 1543 1544 1545 1547 1548 1549 1550 1551 1552 1553 1554 1555 1556 1557 1558
1529 1531 1532 1522 1510 1504 1502 1495 1496 1495 1497 1497 1497 1498 1499 1501 1504 1505 1506 1507 1510 1513 1516 1518 1521 1524 1527 1529 1532 1534 1536 1538 1540 1541 1543 1544 1545 1547 1548 1549 1550 1552 1553 1554 1555 1556 1556 1557 1558
1530 1532 1528 1516 1504 1498 1497 1495 1495 1494 1495 1497 1496 1497 1501 1504 1505 1505 1505 1509 1512 1515 1518 1519 1522 1525 1527 1530 1532 1535 1537 1538 1540 1541 1543 1544 1545 1547 1548 1549 1550 1551 1553 1554 1555 1556 1556 1557 1558
1530 1526 1515 1504 1498 1495 1495 1496 1495 1493 1494 1495 1496 1496 1501 1505 1504 1505 1507 1511 1515 1518 1521 1521 1523 1526 1528 1531 1533 1535 1537 1539 1540 1542 1543 1544 1545 1547 1548 1549 1550 1551 1552 1553 1554 1555 1556 1557 1558
1528 1519 1509 1501 1496 1495 1494 1496 1495 1493 1494 1496 1496 1496 1502 1505 1506 1507 1510 1513 1517 1520 1522 1522 1524 1526 1529 1532 1534 1536 1537 1539 1540 1542 1543 1544 1545 1546 1547 1548 1549 1550 1551 1552 1553 1554 1555 1556 1557
1524 1512 1505 1500 1497 1495 1495 1496 1494 1493 1494 1495 1496 1496 1502 1506 1507 1509 1511 1515 1519 1521 1524 1523 1524 1527 1529 1531 1534 1535 1537 1539 1540 1541 1542 1543 1544 1545 1546 1547 1548 1549 1550 1551 1552 1553 1553 1554 1555
1522 1513 1503 1497 1498 1495 1495 1495 1495 1494 1495 1498 1498 1496 1501 1506 1507 1509 1512 1515 1518 1521 1523 1524 1526 1528 1529 1531 1533 1535 1536 1538 1539 1540 1541 1542 1543 1544 1545 1546 1546 1547 1548 1548 1550 1551 1551 1552 1553
1522 1514 1502 1495 1496 1493 1494 1495 1494 1495 1496 1498 1499 1500 1502 1504 1506 1509 1511 1514 1517 1519 1522 1524 1526 1527 1530 1532 1533 1534 1535 1536 1538 1539 1540 1540 1542 1544 1544 1544 1544 1545 1546 1546 1547 1548 1549 1550 1550
1517 1508 1498 1495 1496 1495 1495 1495 1494 1494 1493 1497 1500 1502 1502 1503 1506 1508 1509 1512 1515 1517 1520 1523 1525 1526 1529 1531 1532 1534 1535 1536 1536 1538 1538 1539 1540 1541 1543 1542 1542 1542 1543 1543 1544 1545 1546 1546 1548
1510 1504 1498 1498 1498 1497 1495 1495 1495 1493 1492 1498 1500 1502 1503 1504 1506 1508 1510 1512 1513 1516 1518 1521 1523 1525 1528 1529 1531 1532 1533 1534 1534 1535 1535 1535 1537 1538 1538 1539 1539 1539 1539 1540 1541 1542 1542 1544 1545
1506 1502 1501 1499 1498 1498 1496 1496 1496 1497 1500 1501 1501 1501 1502 1504 1506 1508 1509 1511 1513 1515 1517 1519 1521 1523 1524 1527 1529 1530 1531 1531 1531 1532 1531 1532 1532 1533 1534 1535 1536 1536 1536 1537 1538 1538 1539 1539 1541
1503 1500 1499 1498 1498 1497 1497 1496 1498 1500 1502 1502 1501 1501 1502 1504 1506 1508 1510 1512 1513 1514 1516 1518 1519 1521 1522 1523 1525 1527 1527 1528 1528 1528 1528 1528 1529 1529 1529 1529 1530 1531 1533 1533 1533 1534 1534 1535 1536
1499 1498 1496 1495 1495 1496 1495 1497 1499 1502 1503 1503 1503 1503 1504 1505 1507 1509 1510 1512 1513 1514 1516 1517 1518 1519 1520 1520 1521 1523 1523 1523 1523 1523 1524 1523 1524 1524 1524 1524 1525 1526 1527 1528 1529 1529 1529 1530 1531
1500 1497 1491 1491 1492 1493 1494 1497 1502 1505 1504 1504 1505 1505 1506 1507 1508 1509 1511 1512 1513 1514 1515 1515 1517 1517 1518 1518 1518 1519 1520 1520 1519 1518 1518 1517 1518 1518 1518 1519 1520 1521 1522 1523 1523 1524 1525 1525 1526
1494 1491 1488 1488 1490 1491 1493 1495 1504 1505 1505 1506 1507 1508 1508 1509 1509 1510 1510 1511 1512 1513 1514 1514 1515 1515 1515 1515 1515 1515 1515 1515 1513 1513 1512 1512 1512 1513 1513 1514 1515 1516 1517 1518 1519 1519 1520 1521 1522
1488 1487 1486 1488 1489 1489 1488 1497 1506 1507 1507 1508 1509 1510 1511 1511 1511 1511 1512 1512 1512 1513 1513 1514 1514 1514 1513 1513 1512 1511 1510 1510 1508 1508 1507 1506 1507 1507 1508 1509 1510 1511 1512 1513 1514 1515 1515 1516 1518
1488 1485 1486 1488 1490 1490 1492 1501 1507 1509 1509 1510 1511 1512 1513 1513 1513 1513 1513 1513 1513 1513 1513 1513 1513 1512 1511 1511 1509 1508 1507 1505 1504 1503 1502 1501 1501 1501 1502 1504 1504 1506 1507 1508 1509 1510 1510 1512 1513
1487 1487 1487 1491 1493 1493 1497 1503 1507 1509 1510 1511 1512 1514 1515 1515 1515 1515 1514 1514 1514 1513 1513 1513 1512 1512 1510 1509 1508 1506 1505 1503 1500 1500 1498 1497 1497 1497 1496 1498 1500 1500 1502 1503 1505 1506 1507 1508 1510
1488 1488 1488 1492 1494 1494 1498 1503 1507 1510 1511 1513 1514 1515 1516 1516 1517 1516 1515 1515 1514 1513 1513 1513 1512 1511 1509 1508 1506 1505 1503 1501 1499 1498 1497 1495 1494 1494 1494 1495 1495 1496 1497 1498 1500 1501 1503 1506 1507
1485 1485 1486 1490 1493 1493 1495 1501 1505 1509 1512 1514 1515 1516 1517 1517 1517 1517 1517 1516 1515 1514 1514 1513 1511 1510 1509 1507 1506 1504 1502 1500 1499 1497 1496 1494 1492 1492 1491 1491 1492 1493 1494 1496 1496 1497 1499 1503 1504
1487 1482 1484 1487 1492 1489 1493 1497 1500 1503 1508 1512 1515 1516 1517 1518 1518 1518 1517 1516 1515 1514 1513 1512 1510 1509 1508 1506 1505 1503 1502 1501 1498 1496 1494 1493 1491 1490 1490 1489 1489 1490 1491 1492 1493 1495 1496 1498 1501
1485 1485 1484 1484 1486 1488 1488 1493 1496 1499 1504 1509 1513 1516 1517 1518 1518 1518 1517 1516 1515 1514 1512 1511 1509 1508 1506 1504 1503 1501 1500 1499 1497 1495 1493 1491 1490 1488 1487 1487 1487 1487 1488 1488 1489 1491 1492 1494 1497
1486 1485 1484 1483 1481 1495 1491 1495 1498 1498 1504 1508 1512 1515 1517 1517 1517 1517 1516 1515 1514 1513 1511 1510 1508 1506 1504 1502 1501 1499 1497 1496 1494 1492 1491 1489 1488 1486 1485 1484 1483 1483 1484 1484 1485 1486 1488 1490 1491
1484 1488 1495 1498 1496 1496 1491 1494 1504 1503 1506 1509 1512 1514 1516 1516 1516 1516 1515 1514 1513 1511 1510 1508 1505 1503 1501 1500 1498 1496 1494 1492 1491 1489 1488 1487 1485 1484 1482 1481 1480 1480 1480 1480 1481 1482 1483 1484 1486
1486 1488 1500 1509 1503 1493 1490 1497 1506 1507 1510 1512 1513 1514 1515 1515 1515 1514 1513 1512 1511 1509 1507 1505 1503 1500 1498 1496 1494 1492 1490 1489 1488 1486 1484 1483 1482 1481 1479 1477 1476 1476 1476 1476 1476 1477 1477 1479 1480
1488 1487 1487 1493 1491 1497 1491 1499 1507 1508 1509 1511 1512 1513 1513 1513 1513 1512 1511 1510 1508 1506 1504 1502 1499 1496 1494 1492 1490 1488 1486 1484 1483 1481 1479 1478 1477 1476 1474 1473 1472 1472 1471 1471 1471 1471 1472 1473 1474
1488 1488 1489 1493 1507 1507 1498 1500 1505 1506 1507 1508 1509 1510 1511 1511 1511 1510 1508 1507 1505 1503 1500 1497 1495 1492 1489 1487 1485 1483 1481 1479 1476 1475 1473 1472 1471 1470 1469 1468 1468 1467 1467 1467 1466 1467 1467 1467 1468
1491 1491 1492 1491 1497 1506 1508 1507 1504 1507 1508 1508 1508 1509 1510 1509 1508 1507 1505 1503 1501 1499 1496 1493 1490 1487 1484 1482 1479 1476 1474 1472 1470 1468 1466 1465 1464 1463 1462 1462 1461 1461 1461 1462 1461 1462 1462 1462 1463
1494 1497 1495 1501 1503 1501 1502 1506 1505 1507 1509 1509 1509 1509 1509 1508 1506 1504 1502 1500 1497 1494 1491 1488 1485 1482 1478 1475 1472 1469 1466 1464 1462 1460 1459 1457 1456 1455 1455 1454 1454 1455 1455 1455 1456 1456 1457 1457 1458